Cloud_Cover
100 100 90 100 80 100 100 20 34 100 94 70 5 66 53 34 100 51 97 36 0 20 1 2 4 17 14 78 98 60 23 98 18 36 95 100 90 10 9 47 82 4 0 0 63 100 99 0 0
100 100 100 100 74 86 100 100 100 100 100 100 33 15 22 96 85 100 100 70 21 17 0 0 0 1 7 5 94 83 18 5 5 50 62 73 26 56 39 56 100 8 0 0 96 53 17 3 0
100 100 100 100 100 100 100 100 18 89 100 100 100 21 5 29 100 100 100 33 29 0 0 0 0 0 3 5 5 5 5 5 5 52 11 5 0 5 100 92 100 66 0 0 0 0 0 0 0
100 97 71 66 100 100 100 100 24 84 74 92 100 95 5 92 100 100 100 6 6 1 0 0 0 0 0 5 5 8 95 9 3 10 5 2 0 1 100 100 100 3 0 0 0 0 0 0 0
100 96 96 100 93 100 100 100 98 100 39 94 69 89 67 94 100 100 100 27 5 15 14 0 2 0 0 0 5 5 5 12 44 5 4 0 0 14 43 36 97 40 0 0 0 0 0 0 0
100 100 100 100 97 39 98 100 100 100 60 100 100 63 94 100 100 100 100 10 0 17 22 3 18 0 0 0 2 5 5 5 5 5 1 0 0 2 0 35 47 4 0 0 0 0 0 0 0
100 100 100 86 43 27 89 94 100 67 50 86 86 100 100 100 100 100 100 79 58 17 27 19 5 3 0 0 0 1 5 12 5 5 1 0 0 0 0 0 1 0 0 0 0 0 0 0 0
100 96 100 59 75 53 69 100 53 49 75 52 67 74 28 100 100 100 100 100 100 39 32 26 6 5 0 0 1 0 0 5 5 5 3 0 0 0 0 0 0 0 0 0 0 0 0 0 5
88 90 99 98 96 85 74 99 99 16 100 90 83 100 63 100 100 100 98 95 100 65 46 44 31 5 0 0 15 0 0 5 5 5 3 0 0 0 2 15 0 0 1 0 2 1 1 5 2
68 79 52 68 18 100 90 86 37 9 98 98 100 100 100 100 100 100 99 100 100 100 100 75 22 9 29 0 0 0 0 1 1 3 2 0 0 3 5 4 4 12 5 5 23 22 56 78 86
43 47 33 54 75 60 60 91 100 6 45 100 100 100 39 100 100 100 100 100 100 58 100 86 23 11 6 5 9 17 15 2 0 0 0 0 8 7 7 12 6 3 5 9 46 88 89 100 20
12 5 5 37 100 91 31 70 84 6 19 97 59 100 99 100 100 100 98 100 51 75 100 100 59 26 5 15 22 9 12 5 4 0 0 12 21 0 2 2 5 5 5 38 49 5 5 5 8
3 0 6 7 100 100 97 94 86 62 38 9 9 98 100 40 77 100 8 23 23 66 58 100 100 96 4 95 19 38 7 10 2 0 0 8 5 1 5 5 1 5 5 0 7 30 2 5 5
0 0 1 10 20 100 45 93 100 99 96 27 38 7 48 79 21 96 26 24 67 100 88 96 100 100 27 1 13 21 78 50 7 6 12 18 20 4 71 47 4 5 5 6 18 90 74 97 66
0 0 0 4 4 67 100 43 100 100 98 84 12 8 23 64 53 18 68 54 68 100 97 81 100 100 55 7 5 13 98 59 17 4 5 50 100 69 25 91 93 53 100 98 6 98 100 100 84
0 0 0 0 4 100 68 80 77 94 77 99 98 57 64 21 99 72 22 5 5 74 100 65 94 100 100 16 14 5 5 76 86 68 17 69 89 29 5 16 74 100 100 99 98 95 100 87 88
8 2 0 4 0 44 100 91 96 36 100 100 100 100 68 13 34 79 19 5 11 39 100 100 97 99 85 71 70 4 5 30 100 100 96 100 50 6 17 22 93 84 43 100 100 100 48 99 100
13 30 5 81 4 0 6 100 18 24 100 100 100 100 100 100 93 10 85 63 88 75 100 100 100 100 70 100 100 70 80 100 100 100 76 97 88 95 91 100 100 90 99 25 7 16 50 48 15
100 7 78 100 75 0 0 77 5 5 81 68 100 100 95 84 8 38 6 8 83 100 48 62 100 100 100 79 100 99 20 5 56 100 95 10 90 100 100 38 50 5 5 5 5 19 46 18 96
100 5 12 95 100 3 0 1 98 2 12 47 92 100 70 95 100 96 80 49 97 5 89 8 4 35 93 100 100 100 100 100 84 100 100 94 20 47 89 99 100 47 9 10 8 11 47 34 20
99 98 99 100 100 42 0 0 5 0 0 0 60 100 100 100 100 100 94 59 80 69 42 5 4 5 27 96 100 100 100 100 100 100 100 100 63 72 7 53 92 43 48 17 9 5 81 47 38
100 100 100 100 100 100 11 9 5 4 0 0 1 41 100 100 100 100 100 96 100 100 9 8 66 5 9 46 72 100 100 91 46 82 97 91 99 97 100 86 67 5 14 59 54 70 93 66 22
90 100 100 100 100 99 5 53 0 4 0 0 0 5 100 100 100 100 100 100 100 100 100 80 63 76 92 96 26 81 89 67 87 59 89 82 37 22 38 6 80 34 86 52 11 30 78 52 94
100 100 100 100 100 91 2 8 0 4 0 5 5 3 48 100 100 100 95 100 100 100 100 98 87 99 96 83 100 78 83 71 92 100 51 93 100 100 68 5 51 59 88 99 62 48 70 100 100
92 100 100 100 100 30 5 6 0 3 4 14 59 5 2 16 100 100 100 99 99 100 100 94 94 98 99 100 100 100 93 72 82 98 91 96 88 100 83 20 5 5 5 43 67 49 74 92 58
100 100 94 100 54 5 6 18 0 0 100 100 100 95 6 6 100 100 100 100 100 100 100 100 98 100 76 100 100 100 100 100 100 100 45 98 100 100 100 100 64 81 48 61 56 76 100 15 39
100 100 59 44 55 33 17 4 0 0 5 100 100 93 17 5 88 100 100 100 100 100 100 100 100 100 100 100 100 100 100 100 100 100 100 100 100 100 99 82 100 100 100 100 100 85 99 57 100
59 72 100 100 96 94 4 5 4 3 5 37 100 100 43 1 6 100 100 100 100 100 100 100 100 100 100 100 100 100 100 100 100 100 100 100 100 100 100 100 100 100 100 100 100 100 100 100 100
100 95 100 100 73 21 4 0 0 0 8 94 99 100 100 16 0 44 100 100 100 100 100 100 100 100 100 100 100 93 100 100 100 100 100 100 100 100 100 100 100 100 100 100 100 100 100 100 100
92 36 89 100 24 92 11 1 0 0 0 92 100 100 100 100 10 4 71 100 100 100 100 100 100 100 100 100 100 100 100 96 94 100 100 100 100 100 100 100 100 100 100 100 100 100 100 100 100